Year,Month,Day,Hour,Minute,Value (Times are PST for temperature in C)
2007,08,25,00,00,15.10
2007,08,25,00,01,15.10
2007,08,25,00,02,15.10
2007,08,25,00,03,15.10
2007,08,25,00,04,15.10
2007,08,25,00,05,15.00
2007,08,25,00,06,15.00
2007,08,25,00,07,15.00
2007,08,25,00,08,15.00
2007,08,25,00,09,15.00
2007,08,25,00,10,15.00
2007,08,25,00,11,15.00
2007,08,25,00,12,15.00
2007,08,25,00,13,15.00
2007,08,25,00,14,15.00
2007,08,25,00,15,15.00
2007,08,25,00,16,15.00
2007,08,25,00,17,15.00
2007,08,25,00,18,15.00
2007,08,25,00,19,15.00
2007,08,25,00,20,15.00
2007,08,25,00,21,15.00
2007,08,25,00,22,15.00
2007,08,25,00,23,15.00
2007,08,25,00,24,15.00
2007,08,25,00,25,15.00
2007,08,25,00,26,15.00
2007,08,25,00,27,15.00
2007,08,25,00,28,15.00
2007,08,25,00,29,15.00
2007,08,25,00,30,15.00
2007,08,25,00,31,15.00
2007,08,25,00,32,15.00
2007,08,25,00,33,15.00
2007,08,25,00,34,15.00
2007,08,25,00,35,15.00
2007,08,25,00,36,15.00
2007,08,25,00,37,15.00
2007,08,25,00,38,15.00
2007,08,25,00,39,15.00
2007,08,25,00,40,15.00
2007,08,25,00,41,15.00
2007,08,25,00,42,15.00
2007,08,25,00,43,15.00
2007,08,25,00,44,15.00
2007,08,25,00,45,15.00
2007,08,25,00,46,15.00
2007,08,25,00,47,15.00
2007,08,25,00,48,15.00
2007,08,25,00,49,15.00
2007,08,25,00,50,15.00
2007,08,25,00,51,15.00
2007,08,25,00,52,14.90
2007,08,25,00,53,14.90
2007,08,25,00,54,14.80
2007,08,25,00,55,14.80
2007,08,25,00,56,14.80
2007,08,25,00,57,14.70
2007,08,25,00,58,14.70
2007,08,25,00,59,14.70
2007,08,25,01,00,14.60
2007,08,25,01,01,14.60
2007,08,25,01,02,14.60
2007,08,25,01,03,14.50
2007,08,25,01,04,14.50
2007,08,25,01,05,14.40
2007,08,25,01,06,14.40
2007,08,25,01,07,14.40
2007,08,25,01,08,14.40
2007,08,25,01,09,14.30
2007,08,25,01,10,14.30
2007,08,25,01,11,14.30
2007,08,25,01,12,14.30
2007,08,25,01,13,14.20
2007,08,25,01,14,14.20
2007,08,25,01,15,14.20
2007,08,25,01,16,14.20
2007,08,25,01,17,14.20
2007,08,25,01,18,14.10
2007,08,25,01,19,14.10
2007,08,25,01,20,14.10
2007,08,25,01,21,14.10
2007,08,25,01,22,14.00
2007,08,25,01,23,14.00
2007,08,25,01,24,14.00
2007,08,25,01,25,13.90
2007,08,25,01,26,13.90
2007,08,25,01,27,13.90
2007,08,25,01,28,13.80
2007,08,25,01,29,13.80
2007,08,25,01,30,13.80
2007,08,25,01,31,13.70
2007,08,25,01,32,13.70
2007,08,25,01,33,13.70
2007,08,25,01,34,13.60
2007,08,25,01,35,13.60
2007,08,25,01,36,13.60
2007,08,25,01,37,13.50
2007,08,25,01,38,13.50
2007,08,25,01,39,13.50
2007,08,25,01,40,13.40
2007,08,25,01,41,13.40
2007,08,25,01,42,13.40
2007,08,25,01,43,13.40
2007,08,25,01,44,13.30
2007,08,25,01,45,13.30
2007,08,25,01,46,13.30
2007,08,25,01,47,13.30
2007,08,25,01,48,13.20
2007,08,25,01,49,13.20
2007,08,25,01,50,13.20
2007,08,25,01,51,13.20
2007,08,25,01,52,13.20
2007,08,25,01,53,13.20
2007,08,25,01,54,13.10
2007,08,25,01,55,13.10
2007,08,25,01,56,13.10
2007,08,25,01,57,13.10
2007,08,25,01,58,13.10
2007,08,25,01,59,13.10
2007,08,25,02,00,13.10
2007,08,25,02,01,13.00
2007,08,25,02,02,13.00
2007,08,25,02,03,13.00
2007,08,25,02,04,12.90
2007,08,25,02,05,12.90
2007,08,25,02,06,12.90
2007,08,25,02,07,12.90
2007,08,25,02,08,12.80
2007,08,25,02,09,12.80
2007,08,25,02,10,12.80
2007,08,25,02,11,12.80
2007,08,25,02,12,12.80
2007,08,25,02,13,12.80
2007,08,25,02,14,12.80
2007,08,25,02,15,12.80
2007,08,25,02,16,12.80
2007,08,25,02,17,12.80
2007,08,25,02,18,12.80
2007,08,25,02,19,12.80
2007,08,25,02,20,12.80
2007,08,25,02,21,12.80
2007,08,25,02,22,12.70
2007,08,25,02,23,12.70
2007,08,25,02,24,12.70
2007,08,25,02,25,12.80
2007,08,25,02,26,12.80
2007,08,25,02,27,12.80
2007,08,25,02,28,12.80
2007,08,25,02,29,12.80
2007,08,25,02,30,12.80
2007,08,25,02,31,12.80
2007,08,25,02,32,12.80
2007,08,25,02,33,12.80
2007,08,25,02,34,12.80
2007,08,25,02,35,12.80
2007,08,25,02,36,12.80
2007,08,25,02,37,12.70
2007,08,25,02,38,12.70
2007,08,25,02,39,12.70
2007,08,25,02,40,12.70
2007,08,25,02,41,12.70
2007,08,25,02,42,12.70
2007,08,25,02,43,12.70
2007,08,25,02,44,12.70
2007,08,25,02,45,12.70
2007,08,25,02,46,12.70
2007,08,25,02,47,12.70
2007,08,25,02,48,12.70
2007,08,25,02,49,12.70
2007,08,25,02,50,12.70
2007,08,25,02,51,12.70
2007,08,25,02,52,12.70
2007,08,25,02,53,12.70
2007,08,25,02,54,12.70
2007,08,25,02,55,12.70
2007,08,25,02,56,12.70
2007,08,25,02,57,12.70
2007,08,25,02,58,12.70
2007,08,25,02,59,12.70
2007,08,25,03,00,12.70
2007,08,25,03,01,12.70
2007,08,25,03,02,12.70
2007,08,25,03,03,12.70
2007,08,25,03,04,12.70
2007,08,25,03,05,12.70
2007,08,25,03,06,12.70
2007,08,25,03,07,12.70
2007,08,25,03,08,12.70
2007,08,25,03,09,12.70
2007,08,25,03,10,12.70
2007,08,25,03,11,12.70
2007,08,25,03,12,12.60
2007,08,25,03,13,12.60
2007,08,25,03,14,12.60
2007,08,25,03,15,12.60
2007,08,25,03,16,12.60
2007,08,25,03,17,12.60
2007,08,25,03,18,12.60
2007,08,25,03,19,12.60
2007,08,25,03,20,12.60
2007,08,25,03,21,12.60
2007,08,25,03,22,12.60
2007,08,25,03,23,12.60
2007,08,25,03,24,12.70
2007,08,25,03,25,12.70
2007,08,25,03,26,12.70
2007,08,25,03,27,12.70
2007,08,25,03,28,12.70
2007,08,25,03,29,12.70
2007,08,25,03,30,12.70
2007,08,25,03,31,12.70
2007,08,25,03,32,12.70
2007,08,25,03,33,12.70
2007,08,25,03,34,12.80
2007,08,25,03,35,12.80
2007,08,25,03,36,12.80
2007,08,25,03,37,12.80
2007,08,25,03,38,12.90
2007,08,25,03,39,12.90
2007,08,25,03,40,12.90
2007,08,25,03,41,12.90
2007,08,25,03,42,12.90
2007,08,25,03,43,12.90
2007,08,25,03,44,12.90
2007,08,25,03,45,12.90
2007,08,25,03,46,12.90
2007,08,25,03,47,12.90
2007,08,25,03,48,12.90
2007,08,25,03,49,13.00
2007,08,25,03,50,13.00
2007,08,25,03,51,13.10
2007,08,25,03,52,13.10
2007,08,25,03,53,13.20
2007,08,25,03,54,13.30
2007,08,25,03,55,13.40
2007,08,25,03,56,13.40
2007,08,25,03,57,13.50
2007,08,25,03,58,13.70
2007,08,25,03,59,13.80
2007,08,25,04,00,13.90
2007,08,25,04,01,14.00
2007,08,25,04,02,14.00
2007,08,25,04,03,14.10
2007,08,25,04,04,14.10
2007,08,25,04,05,14.20
2007,08,25,04,06,14.20
2007,08,25,04,07,14.20
2007,08,25,04,08,14.20
2007,08,25,04,09,14.20
2007,08,25,04,10,14.10
2007,08,25,04,11,14.10
2007,08,25,04,12,14.00
2007,08,25,04,13,14.00
2007,08,25,04,14,14.00
2007,08,25,04,15,14.00
2007,08,25,04,16,14.00
2007,08,25,04,17,14.00
2007,08,25,04,18,14.10
2007,08,25,04,19,14.10
2007,08,25,04,20,14.10
2007,08,25,04,21,14.10
2007,08,25,04,22,14.10
2007,08,25,04,23,14.10
2007,08,25,04,24,14.10
2007,08,25,04,25,14.10
2007,08,25,04,26,14.10
2007,08,25,04,27,14.10
2007,08,25,04,28,14.10
2007,08,25,04,29,14.10
2007,08,25,04,30,14.10
2007,08,25,04,31,14.10
2007,08,25,04,32,14.10
2007,08,25,04,33,14.10
2007,08,25,04,34,14.00
2007,08,25,04,35,14.00
2007,08,25,04,36,14.00
2007,08,25,04,37,14.00
2007,08,25,04,38,14.00
2007,08,25,04,39,14.00
2007,08,25,04,40,14.00
2007,08,25,04,41,14.00
2007,08,25,04,42,13.90
2007,08,25,04,43,13.90
2007,08,25,04,44,13.90
2007,08,25,04,45,13.90
2007,08,25,04,46,13.80
2007,08,25,04,47,13.80
2007,08,25,04,48,13.80
2007,08,25,04,49,13.80
2007,08,25,04,50,13.90
2007,08,25,04,51,13.90
2007,08,25,04,52,13.90
2007,08,25,04,53,13.90
2007,08,25,04,54,14.00
2007,08,25,04,55,14.00
2007,08,25,04,56,14.00
2007,08,25,04,57,14.00
2007,08,25,04,58,14.00
2007,08,25,04,59,14.00
2007,08,25,05,00,14.00
2007,08,25,05,01,14.00
2007,08,25,05,02,14.00
2007,08,25,05,03,14.00
2007,08,25,05,04,14.00
2007,08,25,05,05,14.00
2007,08,25,05,06,13.90
2007,08,25,05,07,13.90
2007,08,25,05,08,14.00
2007,08,25,05,09,14.00
2007,08,25,05,10,14.00
2007,08,25,05,11,14.00
2007,08,25,05,12,13.90
2007,08,25,05,13,13.90
2007,08,25,05,14,13.90
2007,08,25,05,15,13.90
2007,08,25,05,16,13.90
2007,08,25,05,17,13.90
2007,08,25,05,18,13.90
2007,08,25,05,19,13.90
2007,08,25,05,20,13.80
2007,08,25,05,21,13.80
2007,08,25,05,22,13.80
2007,08,25,05,23,13.80
2007,08,25,05,24,13.80
2007,08,25,05,25,13.80
2007,08,25,05,26,13.80
2007,08,25,05,27,13.70
2007,08,25,05,28,13.70
2007,08,25,05,29,13.70
2007,08,25,05,30,13.60
2007,08,25,05,31,13.60
2007,08,25,05,32,13.60
2007,08,25,05,33,13.50
2007,08,25,05,34,13.50
2007,08,25,05,35,13.40
2007,08,25,05,36,13.40
2007,08,25,05,37,13.40
2007,08,25,05,38,13.40
2007,08,25,05,39,13.30
2007,08,25,05,40,13.30
2007,08,25,05,41,13.30
2007,08,25,05,42,13.20
2007,08,25,05,43,13.20
2007,08,25,05,44,13.20
2007,08,25,05,45,13.20
2007,08,25,05,46,13.10
2007,08,25,05,47,13.10
2007,08,25,05,48,13.10
2007,08,25,05,49,13.10
2007,08,25,05,50,13.00
2007,08,25,05,51,13.00
2007,08,25,05,52,13.00
2007,08,25,05,53,12.90
2007,08,25,05,54,12.90
2007,08,25,05,55,12.80
2007,08,25,05,56,12.80
2007,08,25,05,57,12.80
2007,08,25,05,58,12.80
2007,08,25,05,59,12.70
2007,08,25,06,00,12.70
2007,08,25,06,01,12.70
2007,08,25,06,02,12.70
2007,08,25,06,03,12.70
2007,08,25,06,04,12.60
2007,08,25,06,05,12.60
2007,08,25,06,06,12.60
2007,08,25,06,07,12.60
2007,08,25,06,08,12.60
2007,08,25,06,09,12.50
2007,08,25,06,10,12.50
2007,08,25,06,11,12.50
2007,08,25,06,12,12.40
2007,08,25,06,13,12.40
2007,08,25,06,14,12.40
2007,08,25,06,15,12.40
2007,08,25,06,16,12.30
2007,08,25,06,17,12.30
2007,08,25,06,18,12.30
2007,08,25,06,19,12.30
2007,08,25,06,20,12.30
2007,08,25,06,21,12.30
2007,08,25,06,22,12.30
2007,08,25,06,23,12.30
2007,08,25,06,24,12.20
2007,08,25,06,25,12.20
2007,08,25,06,26,12.30
2007,08,25,06,27,12.30
2007,08,25,06,28,12.30
2007,08,25,06,29,12.30
2007,08,25,06,30,12.30
2007,08,25,06,31,12.30
2007,08,25,06,32,12.30
2007,08,25,06,33,12.30
2007,08,25,06,34,12.30
2007,08,25,06,35,12.30
2007,08,25,06,36,12.30
2007,08,25,06,37,12.30
2007,08,25,06,38,12.30
2007,08,25,06,39,12.30
2007,08,25,06,40,12.30
2007,08,25,06,41,12.30
2007,08,25,06,42,12.40
2007,08,25,06,43,12.40
2007,08,25,06,44,12.40
2007,08,25,06,45,12.40
2007,08,25,06,46,12.40
2007,08,25,06,47,12.40
2007,08,25,06,48,12.40
2007,08,25,06,49,12.50
2007,08,25,06,50,12.50
2007,08,25,06,51,12.50
2007,08,25,06,52,12.60
2007,08,25,06,53,12.60
2007,08,25,06,54,12.60
2007,08,25,06,55,12.70
2007,08,25,06,56,12.80
2007,08,25,06,57,12.90
2007,08,25,06,58,12.90
2007,08,25,06,59,13.00
2007,08,25,07,00,13.00
2007,08,25,07,01,13.00
2007,08,25,07,02,13.10
2007,08,25,07,03,13.10
2007,08,25,07,04,13.10
2007,08,25,07,05,13.10
2007,08,25,07,06,13.10
2007,08,25,07,07,13.10
2007,08,25,07,08,13.10
2007,08,25,07,09,13.10
2007,08,25,07,10,13.10
2007,08,25,07,11,13.10
2007,08,25,07,12,13.10
2007,08,25,07,13,13.10
2007,08,25,07,14,13.10
2007,08,25,07,15,13.10
2007,08,25,07,16,13.20
2007,08,25,07,17,13.20
2007,08,25,07,18,13.20
2007,08,25,07,19,13.20
2007,08,25,07,20,13.20
2007,08,25,07,21,13.20
2007,08,25,07,22,13.20
2007,08,25,07,23,13.20
2007,08,25,07,24,13.20
2007,08,25,07,25,13.30
2007,08,25,07,26,13.30
2007,08,25,07,27,13.30
2007,08,25,07,28,13.40
2007,08,25,07,29,13.50
2007,08,25,07,30,13.50
2007,08,25,07,31,13.60
2007,08,25,07,32,13.70
2007,08,25,07,33,13.80
2007,08,25,07,34,13.80
2007,08,25,07,35,13.90
2007,08,25,07,36,13.90
2007,08,25,07,37,14.00
2007,08,25,07,38,14.00
2007,08,25,07,39,14.10
2007,08,25,07,40,14.20
2007,08,25,07,41,14.30
2007,08,25,07,42,14.40
2007,08,25,07,43,14.50
2007,08,25,07,44,14.60
2007,08,25,07,45,14.70
2007,08,25,07,46,14.80
2007,08,25,07,47,14.90
2007,08,25,07,48,15.00
2007,08,25,07,49,15.00
2007,08,25,07,50,15.00
2007,08,25,07,51,15.00
2007,08,25,07,52,15.00
2007,08,25,07,53,15.00
2007,08,25,07,54,15.10
2007,08,25,07,55,15.20
2007,08,25,07,56,15.20
2007,08,25,07,57,15.20
2007,08,25,07,58,15.30
2007,08,25,07,59,15.30
2007,08,25,08,00,15.30
2007,08,25,08,01,15.30
2007,08,25,08,02,15.40
2007,08,25,08,03,15.40
2007,08,25,08,04,15.40
2007,08,25,08,05,15.40
2007,08,25,08,06,15.40
2007,08,25,08,07,15.50
2007,08,25,08,08,15.50
2007,08,25,08,09,15.50
2007,08,25,08,10,15.50
2007,08,25,08,11,15.50
2007,08,25,08,12,15.50
2007,08,25,08,13,15.50
2007,08,25,08,14,15.50
2007,08,25,08,15,15.50
2007,08,25,08,16,15.50
2007,08,25,08,17,15.50
2007,08,25,08,18,15.50
2007,08,25,08,19,15.50
2007,08,25,08,20,15.50
2007,08,25,08,21,15.60
2007,08,25,08,22,15.60
2007,08,25,08,23,15.60
2007,08,25,08,24,15.60
2007,08,25,08,25,15.60
2007,08,25,08,26,15.60
2007,08,25,08,27,15.60
2007,08,25,08,28,15.60
2007,08,25,08,29,15.60
2007,08,25,08,30,15.60
2007,08,25,08,31,15.60
2007,08,25,08,32,15.60
2007,08,25,08,33,15.60
2007,08,25,08,34,15.60
2007,08,25,08,35,15.60
2007,08,25,08,36,15.60
2007,08,25,08,37,15.60
2007,08,25,08,38,15.60
2007,08,25,08,39,15.60
2007,08,25,08,40,15.50
2007,08,25,08,41,15.50
2007,08,25,08,42,15.50
2007,08,25,08,43,15.50
2007,08,25,08,44,15.50
2007,08,25,08,45,15.50
2007,08,25,08,46,15.40
2007,08,25,08,47,15.40
2007,08,25,08,48,15.40
2007,08,25,08,49,15.40
2007,08,25,08,50,15.40
2007,08,25,08,51,15.40
2007,08,25,08,52,15.40
2007,08,25,08,53,15.40
2007,08,25,08,54,15.30
2007,08,25,08,55,15.40
2007,08,25,08,56,15.30
2007,08,25,08,57,15.30
2007,08,25,08,58,15.30
2007,08,25,08,59,15.30
2007,08,25,09,00,15.30
2007,08,25,09,01,15.30
2007,08,25,09,02,15.30
2007,08,25,09,03,15.30
2007,08,25,09,04,15.30
2007,08,25,09,05,15.30
2007,08,25,09,06,15.30
2007,08,25,09,07,15.30
2007,08,25,09,08,15.30
2007,08,25,09,09,15.30
2007,08,25,09,10,15.30
2007,08,25,09,11,15.30
2007,08,25,09,12,15.30
2007,08,25,09,13,15.30
2007,08,25,09,14,15.30
2007,08,25,09,15,15.30
2007,08,25,09,16,15.30
2007,08,25,09,17,15.30
2007,08,25,09,18,15.30
2007,08,25,09,19,15.30
2007,08,25,09,20,15.30
2007,08,25,09,21,15.30
2007,08,25,09,22,15.30
2007,08,25,09,23,15.30
2007,08,25,09,24,15.40
2007,08,25,09,25,15.40
2007,08,25,09,26,15.40
2007,08,25,09,27,15.50
2007,08,25,09,28,15.50
2007,08,25,09,29,15.50
2007,08,25,09,30,15.60
2007,08,25,09,31,15.60
2007,08,25,09,32,15.60
2007,08,25,09,33,15.60
2007,08,25,09,34,15.60
2007,08,25,09,35,15.60
2007,08,25,09,36,15.70
2007,08,25,09,37,15.70
2007,08,25,09,38,15.70
2007,08,25,09,39,15.70
2007,08,25,09,40,15.80
2007,08,25,09,41,15.80
2007,08,25,09,42,15.80
2007,08,25,09,43,15.80
2007,08,25,09,44,15.80
2007,08,25,09,45,15.80
2007,08,25,09,46,15.80
2007,08,25,09,47,15.80
2007,08,25,09,48,15.80
2007,08,25,09,49,15.90
2007,08,25,09,50,15.90
2007,08,25,09,51,15.90
2007,08,25,09,52,15.90
2007,08,25,09,53,15.90
2007,08,25,09,54,15.90
2007,08,25,09,55,15.90
2007,08,25,09,56,15.90
2007,08,25,09,57,16.00
2007,08,25,09,58,16.00
2007,08,25,09,59,16.00
2007,08,25,10,00,16.10
2007,08,25,10,01,16.10
2007,08,25,10,02,16.10
2007,08,25,10,03,16.10
2007,08,25,10,04,16.10
2007,08,25,10,05,16.10
2007,08,25,10,06,16.20
2007,08,25,10,07,16.20
2007,08,25,10,08,16.20
2007,08,25,10,09,16.30
2007,08,25,10,10,16.40
2007,08,25,10,11,16.40
2007,08,25,10,12,16.50
2007,08,25,10,13,16.60
2007,08,25,10,14,16.70
2007,08,25,10,15,16.70
2007,08,25,10,16,16.80
2007,08,25,10,17,16.90
2007,08,25,10,18,17.00
2007,08,25,10,19,17.10
2007,08,25,10,20,17.10
2007,08,25,10,21,17.20
2007,08,25,10,22,17.30
2007,08,25,10,23,17.40
2007,08,25,10,24,17.40
2007,08,25,10,25,17.50
2007,08,25,10,26,17.50
2007,08,25,10,27,17.60
2007,08,25,10,28,17.60
2007,08,25,10,29,17.60
2007,08,25,10,30,17.70
2007,08,25,10,31,17.70
2007,08,25,10,32,17.80
2007,08,25,10,33,17.90
2007,08,25,10,34,17.90
2007,08,25,10,35,18.00
2007,08,25,10,36,18.10
2007,08,25,10,37,18.20
2007,08,25,10,38,18.30
2007,08,25,10,39,18.40
2007,08,25,10,40,18.50
2007,08,25,10,41,18.60
2007,08,25,10,42,18.60
2007,08,25,10,43,18.70
2007,08,25,10,44,18.70
2007,08,25,10,45,18.80
2007,08,25,10,46,18.80
2007,08,25,10,47,18.80
2007,08,25,10,48,18.90
2007,08,25,10,49,18.90
2007,08,25,10,50,18.90
2007,08,25,10,51,18.90
2007,08,25,10,52,18.90
2007,08,25,10,53,18.90
2007,08,25,10,54,18.90
2007,08,25,10,55,18.90
2007,08,25,10,56,18.90
2007,08,25,10,57,18.90
2007,08,25,10,58,18.90
2007,08,25,10,59,18.90
2007,08,25,11,00,18.80
2007,08,25,11,01,18.80
2007,08,25,11,02,18.80
2007,08,25,11,03,18.80
2007,08,25,11,04,18.80
2007,08,25,11,05,18.80
2007,08,25,11,06,18.80
2007,08,25,11,07,18.80
2007,08,25,11,08,18.80
2007,08,25,11,09,18.80
2007,08,25,11,10,18.80
2007,08,25,11,11,18.80
2007,08,25,11,12,18.80
2007,08,25,11,13,18.80
2007,08,25,11,14,18.70
2007,08,25,11,15,18.70
2007,08,25,11,16,18.70
2007,08,25,11,17,18.70
2007,08,25,11,18,18.70
2007,08,25,11,19,18.80
2007,08,25,11,20,18.80
2007,08,25,11,21,18.80
2007,08,25,11,22,18.80
2007,08,25,11,23,18.90
2007,08,25,11,24,18.90
2007,08,25,11,25,18.90
2007,08,25,11,26,18.90
2007,08,25,11,27,18.90
2007,08,25,11,28,19.00
2007,08,25,11,29,19.00
2007,08,25,11,30,19.00
2007,08,25,11,31,19.10
2007,08,25,11,32,19.10
2007,08,25,11,33,19.10
2007,08,25,11,34,19.20
2007,08,25,11,35,19.20
2007,08,25,11,36,19.20
2007,08,25,11,37,19.30
2007,08,25,11,38,19.30
2007,08,25,11,39,19.40
2007,08,25,11,40,19.40
2007,08,25,11,41,19.50
2007,08,25,11,42,19.60
2007,08,25,11,43,19.60
2007,08,25,11,44,19.70
2007,08,25,11,45,19.70
2007,08,25,11,46,19.70
2007,08,25,11,47,19.70
2007,08,25,11,48,19.60
2007,08,25,11,49,19.60
2007,08,25,11,50,19.60
2007,08,25,11,51,19.60
2007,08,25,11,52,19.60
2007,08,25,11,53,19.60
2007,08,25,11,54,19.60
2007,08,25,11,55,19.50
2007,08,25,11,56,19.50
2007,08,25,11,57,19.50
2007,08,25,11,58,19.40
2007,08,25,11,59,19.40
2007,08,25,12,00,19.40
2007,08,25,12,01,19.30
2007,08,25,12,02,19.20
2007,08,25,12,03,19.10
2007,08,25,12,04,19.00
2007,08,25,12,05,18.90
2007,08,25,12,06,18.90
2007,08,25,12,07,18.80
2007,08,25,12,08,18.80
2007,08,25,12,09,18.70
2007,08,25,12,10,18.70
2007,08,25,12,11,18.70
2007,08,25,12,12,18.70
2007,08,25,12,13,18.80
2007,08,25,12,14,18.80
2007,08,25,12,15,18.80
2007,08,25,12,16,18.90
2007,08,25,12,17,18.90
2007,08,25,12,18,19.00
2007,08,25,12,19,19.00
2007,08,25,12,20,19.10
2007,08,25,12,21,19.10
2007,08,25,12,22,19.10
2007,08,25,12,23,19.20
2007,08,25,12,24,19.30
2007,08,25,12,25,19.40
2007,08,25,12,26,19.60
2007,08,25,12,27,19.70
2007,08,25,12,28,19.80
2007,08,25,12,29,20.00
2007,08,25,12,30,20.10
2007,08,25,12,31,20.20
2007,08,25,12,32,20.30
2007,08,25,12,33,20.30
2007,08,25,12,34,20.40
2007,08,25,12,35,20.40
2007,08,25,12,36,20.40
2007,08,25,12,37,20.40
2007,08,25,12,38,20.40
2007,08,25,12,39,20.40
2007,08,25,12,40,20.40
2007,08,25,12,41,20.30
2007,08,25,12,42,20.20
2007,08,25,12,43,20.10
2007,08,25,12,44,20.00
2007,08,25,12,45,19.80
2007,08,25,12,46,19.70
2007,08,25,12,47,19.70
2007,08,25,12,48,19.60
2007,08,25,12,49,19.60
2007,08,25,12,50,19.60
2007,08,25,12,51,19.60
2007,08,25,12,52,19.50
2007,08,25,12,53,19.50
2007,08,25,12,54,19.40
2007,08,25,12,55,19.30
2007,08,25,12,56,19.30
2007,08,25,12,57,19.30
2007,08,25,12,58,19.30
2007,08,25,12,59,19.30
2007,08,25,13,00,19.30
2007,08,25,13,01,19.30
2007,08,25,13,02,19.30
2007,08,25,13,03,19.20
2007,08,25,13,04,19.20
2007,08,25,13,05,19.20
2007,08,25,13,06,19.30
2007,08,25,13,07,19.30
2007,08,25,13,08,19.30
2007,08,25,13,09,19.30
2007,08,25,13,10,19.30
2007,08,25,13,11,19.30
2007,08,25,13,12,19.30
2007,08,25,13,13,19.30
2007,08,25,13,14,19.40
2007,08,25,13,15,19.50
2007,08,25,13,16,19.50
2007,08,25,13,17,19.60
2007,08,25,13,18,19.60
2007,08,25,13,19,19.60
2007,08,25,13,20,19.50
2007,08,25,13,21,19.40
2007,08,25,13,22,19.20
2007,08,25,13,23,19.10
2007,08,25,13,24,18.90
2007,08,25,13,25,18.90
2007,08,25,13,26,18.80
2007,08,25,13,27,18.70
2007,08,25,13,28,18.60
2007,08,25,13,29,18.50
2007,08,25,13,30,18.40
2007,08,25,13,31,18.40
2007,08,25,13,32,18.40
2007,08,25,13,33,18.40
2007,08,25,13,34,18.40
2007,08,25,13,35,18.40
2007,08,25,13,36,18.30
2007,08,25,13,37,18.40
2007,08,25,13,38,18.40
2007,08,25,13,39,18.40
2007,08,25,13,40,18.40
2007,08,25,13,41,18.40
2007,08,25,13,42,18.30
2007,08,25,13,43,18.30
2007,08,25,13,44,18.20
2007,08,25,13,45,18.20
2007,08,25,13,46,18.10
2007,08,25,13,47,18.10
2007,08,25,13,48,18.00
2007,08,25,13,49,17.90
2007,08,25,13,50,17.90
2007,08,25,13,51,17.90
2007,08,25,13,52,17.90
2007,08,25,13,53,17.90
2007,08,25,13,54,17.90
2007,08,25,13,55,17.90
2007,08,25,13,56,17.90
2007,08,25,13,57,17.80
2007,08,25,13,58,17.80
2007,08,25,13,59,17.80
2007,08,25,14,00,17.80
2007,08,25,14,01,17.90
2007,08,25,14,02,17.90
2007,08,25,14,03,17.90
2007,08,25,14,04,17.80
2007,08,25,14,05,17.80
2007,08,25,14,06,17.70
2007,08,25,14,07,17.70
2007,08,25,14,08,17.60
2007,08,25,14,09,17.60
2007,08,25,14,10,17.50
2007,08,25,14,11,17.40
2007,08,25,14,12,17.30
2007,08,25,14,13,17.30
2007,08,25,14,14,17.30
2007,08,25,14,15,17.20
2007,08,25,14,16,17.20
2007,08,25,14,17,17.20
2007,08,25,14,18,17.10
2007,08,25,14,19,17.10
2007,08,25,14,20,17.00
2007,08,25,14,21,17.00
2007,08,25,14,22,16.90
2007,08,25,14,23,16.90
2007,08,25,14,24,16.80
2007,08,25,14,25,16.80
2007,08,25,14,26,16.80
2007,08,25,14,27,16.80
2007,08,25,14,28,16.80
2007,08,25,14,29,16.70
2007,08,25,14,30,16.70
2007,08,25,14,31,16.60
2007,08,25,14,32,16.50
2007,08,25,14,33,16.50
2007,08,25,14,34,16.40
2007,08,25,14,35,16.40
2007,08,25,14,36,16.40
2007,08,25,14,37,16.40
2007,08,25,14,38,16.40
2007,08,25,14,39,16.40
2007,08,25,14,40,16.40
2007,08,25,14,41,16.50
2007,08,25,14,42,16.50
2007,08,25,14,43,16.60
2007,08,25,14,44,16.60
2007,08,25,14,45,16.70
2007,08,25,14,46,16.70
2007,08,25,14,47,16.70
2007,08,25,14,48,16.70
2007,08,25,14,49,16.70
2007,08,25,14,50,16.60
2007,08,25,14,51,16.60
2007,08,25,14,52,16.50
2007,08,25,14,53,16.40
2007,08,25,14,54,16.40
2007,08,25,14,55,16.30
2007,08,25,14,56,16.30
2007,08,25,14,57,16.20
2007,08,25,14,58,16.20
2007,08,25,14,59,16.10
2007,08,25,15,00,16.10
2007,08,25,15,01,16.10
2007,08,25,15,02,16.10
2007,08,25,15,03,16.10
2007,08,25,15,04,16.00
2007,08,25,15,05,16.00
2007,08,25,15,06,16.00
2007,08,25,15,07,16.00
2007,08,25,15,08,16.00
2007,08,25,15,09,16.00
2007,08,25,15,10,16.00
2007,08,25,15,11,15.90
2007,08,25,15,12,15.90
2007,08,25,15,13,15.80
2007,08,25,15,14,15.80
2007,08,25,15,15,15.80
2007,08,25,15,16,15.70
2007,08,25,15,17,15.70
2007,08,25,15,18,15.70
2007,08,25,15,19,15.60
2007,08,25,15,20,15.60
2007,08,25,15,21,15.60
2007,08,25,15,22,15.60
2007,08,25,15,23,15.60
2007,08,25,15,24,15.60
2007,08,25,15,25,15.50
2007,08,25,15,26,15.50
2007,08,25,15,27,15.50
2007,08,25,15,28,15.50
2007,08,25,15,29,15.50
2007,08,25,15,30,15.50
2007,08,25,15,31,15.50
2007,08,25,15,32,15.40
2007,08,25,15,33,15.40
2007,08,25,15,34,15.40
2007,08,25,15,35,15.40
2007,08,25,15,36,15.50
2007,08,25,15,37,15.50
2007,08,25,15,38,15.50
2007,08,25,15,39,15.40
2007,08,25,15,40,15.40
2007,08,25,15,41,15.40
2007,08,25,15,42,15.40
2007,08,25,15,43,15.40
2007,08,25,15,44,15.30
2007,08,25,15,45,15.30
2007,08,25,15,46,15.30
2007,08,25,15,47,15.30
2007,08,25,15,48,15.30
2007,08,25,15,49,15.30
2007,08,25,15,50,15.30
2007,08,25,15,51,15.30
2007,08,25,15,52,15.30
2007,08,25,15,53,15.30
2007,08,25,15,54,15.30
2007,08,25,15,55,15.30
2007,08,25,15,56,15.30
2007,08,25,15,57,15.20
2007,08,25,15,58,15.20
2007,08,25,15,59,15.20
2007,08,25,16,00,15.20
2007,08,25,16,01,15.20
2007,08,25,16,02,15.20
2007,08,25,16,03,15.30
2007,08,25,16,04,15.30
2007,08,25,16,05,15.30
2007,08,25,16,06,15.30
2007,08,25,16,07,15.30
2007,08,25,16,08,15.30
2007,08,25,16,09,15.30
2007,08,25,16,10,15.30
2007,08,25,16,11,15.30
2007,08,25,16,12,15.40
2007,08,25,16,13,15.40
2007,08,25,16,14,15.40
2007,08,25,16,15,15.50
2007,08,25,16,16,15.50
2007,08,25,16,17,15.60
2007,08,25,16,18,15.60
2007,08,25,16,19,15.60
2007,08,25,16,20,15.60
2007,08,25,16,21,15.70
2007,08,25,16,22,15.70
2007,08,25,16,23,15.70
2007,08,25,16,24,15.80
2007,08,25,16,25,15.80
2007,08,25,16,26,15.90
2007,08,25,16,27,15.90
2007,08,25,16,28,16.00
2007,08,25,16,29,16.00
2007,08,25,16,30,16.10
2007,08,25,16,31,16.10
2007,08,25,16,32,16.20
2007,08,25,16,33,16.20
2007,08,25,16,34,16.20
2007,08,25,16,35,16.30
2007,08,25,16,36,16.30
2007,08,25,16,37,16.30
2007,08,25,16,38,16.40
2007,08,25,16,39,16.40
2007,08,25,16,40,16.40
2007,08,25,16,41,16.50
2007,08,25,16,42,16.50
2007,08,25,16,43,16.60
2007,08,25,16,44,16.60
2007,08,25,16,45,16.60
2007,08,25,16,46,16.70
2007,08,25,16,47,16.80
2007,08,25,16,48,16.80
2007,08,25,16,49,16.90
2007,08,25,16,50,16.90
2007,08,25,16,51,17.00
2007,08,25,16,52,17.00
2007,08,25,16,53,17.10
2007,08,25,16,54,17.10
2007,08,25,16,55,17.10
2007,08,25,16,56,17.10
2007,08,25,16,57,17.20
2007,08,25,16,58,17.20
2007,08,25,16,59,17.20
2007,08,25,17,00,17.20
2007,08,25,17,01,17.20
2007,08,25,17,02,17.20
2007,08,25,17,03,17.20
2007,08,25,17,04,17.30
2007,08,25,17,05,17.20
2007,08,25,17,06,17.30
2007,08,25,17,07,17.30
2007,08,25,17,08,17.20
2007,08,25,17,09,17.20
2007,08,25,17,10,17.20
2007,08,25,17,11,17.20
2007,08,25,17,12,17.20
2007,08,25,17,13,17.20
2007,08,25,17,14,17.20
2007,08,25,17,15,17.20
2007,08,25,17,16,17.20
2007,08,25,17,17,17.20
2007,08,25,17,18,17.20
2007,08,25,17,19,17.20